• In Hungary
  • List of Countries
  • For 7 days
  • Water Temperature
  • Satellite Maps
  • Weather Map
  • News
  • Weather Widgets
  • user-avatar
    Login

    Hourly Weather Naftalan

    Today, 21 November, Tuesday

    Time Temperature Precipitation Wind Pressure Humidity
    00:00 +16°C° 0 mm 2 mps 761 mmHg 61%
    01:00 +16°C° 0 mm 2 mps 760 mmHg 58%
    02:00 +15°C° 0 mm 2 mps 760 mmHg 55%
    03:00 +16°C° 0 mm 2 mps 759 mmHg 53%
    04:00 +15°C° 0 mm 2 mps 759 mmHg 50%
    05:00 +15°C° 0 mm 2 mps 759 mmHg 47%
    06:00 +15°C° 0 mm 2 mps 759 mmHg 44%
    07:00 +16°C° 0 mm 2 mps 759 mmHg 42%
    08:00 +17°C° 0 mm 2 mps 759 mmHg 40%
    09:00 +19°C° 0 mm 2 mps 758 mmHg 37%
    10:00 +20°C° 0 mm 2 mps 758 mmHg 35%
    11:00 +21°C° 0 mm 2 mps 757 mmHg 33%
    12:00 +24°C° 0 mm 2 mps 757 mmHg 31%
    13:00 +24°C° 0 mm 2 mps 757 mmHg 32%
    14:00 +23°C° 0 mm 2 mps 756 mmHg 33%
    15:00 +23°C° 0 mm 1 mps 756 mmHg 34%
    16:00 +22°C° 0 mm 1 mps 756 mmHg 38%
    17:00 +21°C° 0 mm 1 mps 756 mmHg 42%
    18:00 +19°C° 0 mm 1 mps 756 mmHg 45%
    19:00 +18°C° 0 mm 2 mps 755 mmHg 45%
    20:00 +18°C° 0 mm 2 mps 755 mmHg 45%
    21:00 +17°C° 0 mm 2 mps 755 mmHg 44%
    22:00 +17°C° 0 mm 3 mps 754 mmHg 43%
    23:00 +17°C° 0 mm 3 mps 754 mmHg 42%

    Tomorrow, 22 November, Wednesday

    Time Temperature Precipitation Wind Pressure Humidity
    00:00 +16°C° 0 mm 3 mps 754 mmHg 41%
    01:00 +16°C° 0 mm 3 mps 754 mmHg 41%
    02:00 +16°C° 0 mm 3 mps 753 mmHg 41%
    03:00 +16°C° 0 mm 3 mps 753 mmHg 41%
    04:00 +14°C° 0 mm 3 mps 754 mmHg 41%
    05:00 +14°C° 0 mm 4 mps 754 mmHg 41%
    06:00 +14°C° 0 mm 5 mps 754 mmHg 41%
    07:00 +14°C° 0 mm 6 mps 755 mmHg 42%
    08:00 +15°C° 0 mm 7 mps 755 mmHg 43%
    09:00 +15°C° 0 mm 8 mps 756 mmHg 44%
    10:00 +16°C° 0 mm 7 mps 756 mmHg 45%
    11:00 +16°C° 0 mm 7 mps 756 mmHg 46%
    12:00 +17°C° 0 mm 7 mps 757 mmHg 47%
    13:00 +17°C° 0 mm 8 mps 757 mmHg 47%
    14:00 +16°C° 0 mm 9 mps 758 mmHg 48%
    15:00 +16°C° 0 mm 9 mps 758 mmHg 49%
    16:00 +14°C° 0 mm 10 mps 759 mmHg 51%
    17:00 +13°C° 0 mm 10 mps 759 mmHg 54%
    18:00 +12°C° 0 mm 10 mps 760 mmHg 56%
    19:00 +12°C° 0 mm 10 mps 760 mmHg 58%
    20:00 +11°C° 0 mm 10 mps 761 mmHg 60%
    21:00 +11°C° 0 mm 9 mps 761 mmHg 62%
    22:00 +10°C° 0 mm 9 mps 761 mmHg 63%
    23:00 +10°C° 0 mm 9 mps 761 mmHg 64%

    Day after tomorrow, 23 November, Thursday

    Time Temperature Precipitation Wind Pressure Humidity
    00:00 +10°C° 0 mm 9 mps 762 mmHg 65%
    01:00 +8°C° 0.1 mm 9 mps 762 mmHg 66%
    02:00 +9°C° 0.1 mm 8 mps 762 mmHg 68%
    03:00 +9°C° 0.1 mm 8 mps 762 mmHg 69%
    04:00 +7°C° 0.4 mm 8 mps 762 mmHg 71%
    05:00 +7°C° 0.4 mm 8 mps 763 mmHg 73%
    06:00 +7°C° 0.4 mm 8 mps 763 mmHg 75%
    07:00 +8°C° 0.4 mm 7 mps 763 mmHg 74%
    08:00 +8°C° 0.4 mm 7 mps 763 mmHg 74%
    09:00 +8°C° 0.4 mm 6 mps 764 mmHg 74%
    10:00 +8°C° 0.3 mm 6 mps 764 mmHg 71%
    11:00 +8°C° 0.3 mm 6 mps 764 mmHg 69%
    12:00 +8°C° 0.3 mm 5 mps 763 mmHg 66%
    13:00 +8°C° 0 mm 5 mps 763 mmHg 64%
    14:00 +10°C° 0 mm 4 mps 763 mmHg 62%
    15:00 +10°C° 0 mm 4 mps 763 mmHg 60%
    16:00 +9°C° 0 mm 3 mps 764 mmHg 64%
    17:00 +9°C° 0 mm 2 mps 764 mmHg 68%
    18:00 +8°C° 0 mm 2 mps 764 mmHg 72%
    19:00 +8°C° 0 mm 2 mps 764 mmHg 73%
    20:00 +8°C° 0 mm 2 mps 765 mmHg 73%
    21:00 +7°C° 0 mm 3 mps 765 mmHg 73%
    22:00 +7°C° 0 mm 3 mps 765 mmHg 73%
    23:00 +6°C° 0 mm 4 mps 765 mmHg 72%

    24 November, Friday

    Time Temperature Precipitation Wind Pressure Humidity
    00:00 +6°C° 0 mm 4 mps 765 mmHg 72%
    01:00 +6°C° 0.1 mm 5 mps 765 mmHg 70%
    02:00 +5°C° 0.1 mm 6 mps 765 mmHg 69%
    03:00 +5°C° 0.1 mm 7 mps 766 mmHg 67%
    04:00 +5°C° 0.4 mm 7 mps 766 mmHg 61%
    05:00 +5°C° 0.4 mm 7 mps 766 mmHg 54%
    06:00 +4°C° 0.4 mm 7 mps 767 mmHg 48%
    07:00 +5°C° 0.3 mm 6 mps 767 mmHg 46%
    08:00 +5°C° 0.3 mm 6 mps 767 mmHg 44%
    09:00 +6°C° 0.3 mm 5 mps 768 mmHg 43%
    10:00 +7°C° 0.2 mm 5 mps 768 mmHg 40%
    11:00 +7°C° 0.2 mm 5 mps 767 mmHg 38%
    12:00 +8°C° 0.2 mm 5 mps 767 mmHg 36%
    13:00 +8°C° 0.1 mm 5 mps 767 mmHg 34%
    14:00 +8°C° 0.1 mm 4 mps 767 mmHg 33%
    15:00 +8°C° 0.1 mm 4 mps 767 mmHg 32%
    16:00 +8°C° 0.1 mm 4 mps 768 mmHg 35%
    17:00 +8°C° 0.1 mm 5 mps 768 mmHg 38%
    18:00 +7°C° 0.1 mm 5 mps 768 mmHg 40%
    19:00 +7°C° 0.1 mm 5 mps 768 mmHg 42%
    20:00 +7°C° 0.1 mm 5 mps 769 mmHg 44%
    21:00 +7°C° 0.1 mm 6 mps 769 mmHg 45%
    22:00 +5°C° 0 mm 6 mps 769 mmHg 47%
    23:00 +5°C° 0 mm 6 mps 769 mmHg 48%

    25 November, Saturday

    Time Temperature Precipitation Wind Pressure Humidity
    00:00 +5°C° 0 mm 6 mps 769 mmHg 49%
    01:00 +5°C° 0 mm 6 mps 769 mmHg 50%
    02:00 +4°C° 0 mm 6 mps 769 mmHg 52%
    03:00 +4°C° 0 mm 6 mps 769 mmHg 53%
    04:00 +4°C° 0 mm 6 mps 770 mmHg 53%
    05:00 +4°C° 0 mm 6 mps 770 mmHg 53%
    06:00 +4°C° 0 mm 6 mps 770 mmHg 53%
    07:00 +4°C° 0 mm 7 mps 771 mmHg 48%
    08:00 +5°C° 0 mm 7 mps 771 mmHg 43%
    09:00 +5°C° 0 mm 8 mps 772 mmHg 39%
    10:00 +6°C° 0 mm 9 mps 772 mmHg 38%
    11:00 +7°C° 0 mm 9 mps 772 mmHg 37%
    12:00 +8°C° 0 mm 10 mps 772 mmHg 36%
    13:00 +8°C° 0 mm 9 mps 772 mmHg 35%
    14:00 +8°C° 0 mm 9 mps 772 mmHg 35%
    15:00 +8°C° 0 mm 9 mps 773 mmHg 35%
    16:00 +7°C° 0 mm 9 mps 773 mmHg 40%
    17:00 +6°C° 0 mm 9 mps 774 mmHg 45%
    18:00 +6°C° 0 mm 9 mps 775 mmHg 49%
    19:00 +5°C° 0.2 mm 8 mps 775 mmHg 52%
    20:00 +5°C° 0.2 mm 7 mps 776 mmHg 54%
    21:00 +5°C° 0.2 mm 6 mps 776 mmHg 56%
    22:00 +4°C° 0.1 mm 6 mps 776 mmHg 56%
    23:00 +5°C° 0.1 mm 5 mps 776 mmHg 56%

    26 November, Sunday

    Time Temperature Precipitation Wind Pressure Humidity
    00:00 +4°C° 0.1 mm 4 mps 776 mmHg 56%
    01:00 +4°C° 0 mm 4 mps 776 mmHg 54%
    02:00 +4°C° 0 mm 4 mps 776 mmHg 52%
    03:00 +4°C° 0 mm 3 mps 776 mmHg 50%
    04:00 +3°C° 0 mm 3 mps 776 mmHg 49%
    05:00 +3°C° 0 mm 3 mps 776 mmHg 48%
    06:00 +4°C° 0 mm 2 mps 776 mmHg 47%
    07:00 +5°C° 0 mm 2 mps 777 mmHg 45%
    08:00 +6°C° 0 mm 2 mps 777 mmHg 42%
    09:00 +7°C° 0 mm 2 mps 777 mmHg 39%
    10:00 +8°C° 0 mm 2 mps 776 mmHg 37%
    11:00 +9°C° 0 mm 2 mps 776 mmHg 36%
    12:00 +10°C° 0 mm 2 mps 775 mmHg 34%
    13:00 +10°C° 0 mm 2 mps 775 mmHg 35%
    14:00 +10°C° 0 mm 2 mps 775 mmHg 37%
    15:00 +10°C° 0 mm 2 mps 774 mmHg 39%
    16:00 +10°C° 0 mm 1 mps 774 mmHg 44%
    17:00 +9°C° 0 mm 1 mps 775 mmHg 49%
    18:00 +8°C° 0 mm 1 mps 775 mmHg 54%
    19:00 +8°C° 0 mm 1 mps 775 mmHg 53%
    20:00 +8°C° 0 mm 1 mps 775 mmHg 51%
    21:00 +7°C° 0 mm 2 mps 775 mmHg 49%
    22:00 +6°C° 0 mm 2 mps 775 mmHg 47%
    23:00 +6°C° 0 mm 2 mps 774 mmHg 46%
    Show more